Home > Weather > Oceanside > Past weeks

Flag for USA Past Weather in Oceanside, California, USA — Yesterday and Last 2 Weeks

Now
78 °F

Sunny.


Feels Like: 80 °F
Forecast: 66 / 87 °F
Wind: 13 mph from Southwest

Location: Oceanside Weather Reporting Station

Current Time: Jul 23, 2016 at 4:17:02 PM

Latest Report: Jul 23, 2016 at 2:52 PM


Visibility: 8 mi

Pressure: 29.83 "Hg

Humidity: 64%

Dew Point: 65 °F

Location of OceansideLocation

Past Weather in Oceanside — Graph

°F

Oceanside Temperature Yesterday

Maximum temperature yesterday: 85 °F (at 11:52 AM)
Minimum temperature yesterday: 61 °F (at 3:52 AM)
Average temperature yesterday: 74 °F

High & Low Weather Summary for the Past Weeks

 TemperatureHumidityPressure
High85 °F (Jul 21, 1:52 PM)93% (Jul 22, 3:52 AM)30.03 "Hg (Jul 22, 3:52 AM)
Low57 °F (Jul 9, 5:52 AM)43% (Jul 21, 1:52 PM)29.79 "Hg (Jul 23, 4:52 AM)
Average71 °F72%29.93 "Hg
* Reported Jul 8 2:52 PM — Jul 23 2:52 PM, Oceanside, Weather by CustomWeather, © 2016

Note: Actual official high and low records may vary slightly from our data, if they occured in-between our weather recording intervals... More about our weather records

Advertising

Oceanside Weather History for the Previous 24 Hours

Scroll right to see more
 ConditionsComfort  
Time TempWeatherWind HumidityBarometerVisibility
2:52 PM
Sat, Jul 23
78 °FSunny.13 mph64%29.83 "Hg8 mi
1:52 PM78 °FSunny.13 mph64%29.83 "Hg7 mi
12:52 PM78 °FSunny.17 mph66%29.83 "Hg7 mi
11:52 AM82 °FSunny.13 mph60%29.81 "Hg8 mi
10:52 AM82 °FSunny.10 mph60%29.81 "Hg7 mi
9:52 AM85 °FSunny.8 mph51%29.80 "Hg7 mi
8:52 AM80 °FSunny.No wind52%29.80 "Hg9 mi
7:52 AM72 °FSunny.3 mph59%29.82 "Hg10 mi
6:52 AM67 °FClear.3 mph79%29.80 "Hg8 mi
5:52 AM66 °FClear.No wind84%29.80 "Hg8 mi
4:52 AM68 °FPassing clouds.5 mph82%29.79 "Hg8 mi
3:52 AM71 °FLow clouds.5 mph78%29.79 "Hg7 mi
2:52 AM70 °FLow clouds.6 mph81%29.80 "Hg7 mi
1:52 AM69 °FLow clouds.No wind84%29.81 "Hg7 mi
12:52 AM67 °FFog.No wind87%29.82 "Hg6 mi
11:52 PM
Fri, Jul 22
68 °FClear.No wind87%29.83 "Hg7 mi
10:52 PM69 °FClear.No wind81%29.83 "Hg8 mi
9:52 PM71 °FClear.3 mph78%29.83 "Hg8 mi
8:52 PM73 °FSunny.No wind79%29.83 "Hg8 mi
7:52 PM76 °FSunny.5 mph69%29.81 "Hg8 mi
6:52 PM78 °FSunny.8 mph62%29.81 "Hg8 mi
5:52 PM80 °FSunny.8 mph58%29.82 "Hg9 mi
4:52 PM82 °FSunny.9 mph51%29.83 "Hg9 mi
Weather by CustomWeather, © 2016

See weather overviewHow to use our weather pages